Cloud_Cover
0 0 0 0 0 0 0 0 0 0 0 0 0 0 0 0 0 0 0 0 0 0 0 0 0 0 0 0 0 0 0 5 5 4 3 0 0 0 0 0 5 5 5
0 0 0 0 0 0 0 0 0 0 0 0 0 0 0 0 0 0 0 0 0 0 0 0 0 0 0 0 0 0 0 0 0 5 5 5 5 5 5 5 5 5 5
0 0 0 0 0 0 0 0 0 0 0 0 0 0 0 0 0 0 0 0 0 0 0 0 0 0 0 0 0 0 0 0 0 7 6 5 5 5 27 38 11 8 5
2 0 0 0 0 0 0 0 0 0 1 0 0 0 0 0 0 0 0 0 0 0 0 0 0 0 0 0 0 0 0 0 0 10 11 5 5 5 46 69 5 5 5
100 72 0 0 0 0 0 0 0 0 0 0 0 0 0 0 0 0 0 0 0 0 0 0 0 0 0 0 0 0 0 0 0 6 10 10 5 5 7 5 29 5 5
74 100 87 100 0 0 0 0 0 0 0 0 0 0 0 0 0 0 0 0 0 0 0 0 0 0 0 0 0 0 0 0 0 9 6 9 0 0 5 5 8 59 5
100 100 100 100 88 27 10 0 0 0 0 0 0 0 0 0 0 0 0 0 0 0 0 0 0 0 0 0 0 3 0 1 7 0 0 0 3 4 5 5 5 5 8
100 100 100 100 100 100 100 100 99 91 9 0 0 0 0 0 0 0 0 0 0 0 0 0 0 0 0 0 0 0 0 0 0 0 0 0 0 0 1 5 4 1 21
100 100 100 100 100 100 100 94 100 100 100 84 0 0 0 0 0 0 2 0 0 0 0 0 0 0 0 0 0 0 0 0 0 0 0 0 0 0 0 1 22 82 25
100 100 100 100 100 100 100 100 100 100 100 100 45 0 0 0 0 0 4 0 0 0 0 0 0 0 0 0 0 0 0 0 0 0 0 1 15 0 6 6 8 34 39
100 100 100 100 100 90 98 100 100 100 100 100 100 2 0 0 0 3 12 0 0 0 0 0 0 0 0 0 17 0 0 0 0 0 0 2 7 7 5 27 21 18 48
100 100 100 100 100 100 100 100 100 100 100 100 100 71 0 0 6 3 10 48 0 0 0 0 0 0 0 6 45 0 0 6 1 2 1 0 1 5 5 21 24 28 68
99 100 100 100 100 100 100 100 100 100 100 100 100 95 0 1 1 66 48 35 29 2 0 0 0 13 0 24 2 3 25 29 8 21 4 0 3 5 5 13 52 67 32
100 100 100 100 100 100 100 100 100 100 100 100 100 100 71 49 0 0 33 88 85 68 3 9 4 6 5 17 26 6 5 4 4 5 6 20 8 4 6 12 13 71 81
100 100 100 100 100 100 100 100 100 100 100 100 100 100 96 99 12 6 0 2 9 34 28 46 83 67 23 13 10 6 13 17 32 65 63 98 50 7 8 12 31 79 90
100 100 100 100 100 100 96 100 100 100 100 100 100 100 99 20 55 80 93 100 100 100 97 96 100 100 100 74 48 41 98 59 42 72 100 100 98 6 6 38 48 75 96
100 88 100 100 100 100 100 100 100 100 100 100 100 100 100 100 100 100 100 100 100 100 97 100 100 100 99 100 100 95 100 100 100 100 100 100 98 60 100 35 63 99 100
100 98 96 100 100 100 100 100 100 100 100 100 100 100 100 100 100 100 100 97 100 100 100 100 95 67 94 100 100 100 100 100 99 99 100 100 100 100 99 70 82 78 100
100 100 74 82 100 100 100 100 100 100 100 100 100 100 100 100 100 100 100 100 42 95 100 100 64 67 100 100 99 70 61 98 96 97 96 65 100 100 100 100 100 98 99
61 100 91 100 100 100 100 100 100 100 100 100 100 100 100 100 100 100 100 100 45 100 100 100 100 100 100 100 100 100 100 93 92 100 68 53 52 100 93 100 100 79 100
86 100 100 100 100 100 100 100 100 100 100 100 100 100 100 100 100 100 100 100 100 100 100 100 100 100 100 100 100 100 100 81 56 100 100 92 100 100 63 81 35 30 100
97 100 90 100 100 100 100 100 100 100 100 100 100 100 100 100 100 100 100 100 100 100 100 100 100 100 100 100 100 99 100 100 100 100 99 100 100 100 73 87 76 99 100
97 98 100 100 100 100 100 100 100 100 100 100 100 100 100 100 100 100 100 100 100 100 100 100 100 100 100 100 100 100 100 100 100 99 100 100 100 100 100 100 59 55 60
100 100 100 100 100 100 100 100 100 100 100 100 100 100 100 100 100 100 100 100 100 100 100 100 100 100 100 100 100 100 100 100 100 100 98 100 100 100 100 89 100 99 99
100 100 100 100 100 100 100 100 100 100 100 100 100 100 100 100 100 100 100 100 100 100 100 100 100 100 100 100 100 100 100 100 100 100 99 100 95 94 17 9 21 100 94
100 100 100 100 100 100 100 100 100 100 100 100 100 100 100 100 100 100 100 100 100 100 100 100 100 95 100 100 100 100 100 100 100 100 100 100 100 94 95 22 99 100 100